Location: Newark
(40.7636°N, 73.9728°W)
Time: 05:29:18
(UTC+00:00)

ISS - Pass Details

Date: 23 September 2019
Orbit: 411 x 421 km, 51.6° (Epoch: 19 October)

Event Time Altitude Azimuth Distance (km) Brightness Sun altitude
Rises 01:31:27 0° 286° (WNW) 2,342 1.2 -29.5°
Reaches altitude 10° 01:34:13 10° 311° (NW) 1,481 -0.1 -30.0°
Enters shadow 01:34:56 13° 322° (NW) 1,333 -0.5 -30.1°
